This is the latest recevied weather packets stored in our database for station/object KD8FRE. If no packets are shown the sender has not sent any weather packets the latest 10 day(s).
| Time | Temp. | Humidity | Pressure | Rain* | Wind** | Luminosity | Snow |
|---|---|---|---|---|---|---|---|
| 1778149480 | 3.33° C | 84% | 1012.7 hPa | 0 mm | - | 2 W/m² | - |
| 1778149177 | 3.33° C | 83% | 1012.5 hPa | 0 mm | - | 1 W/m² | - |
| 1778148872 | 3.89° C | 84% | 1012.6 hPa | 0 mm | - | 0 W/m² | - |
| 1778148568 | 3.89° C | 83% | 1012.4 hPa | 0 mm | - | 0 W/m² | - |
| 1778148266 | 3.33° C | 81% | 1012.4 hPa | 0 mm | - | 0 W/m² | - |
| 1778147964 | 3.33° C | 81% | 1012.5 hPa | 0 mm | - | 0 W/m² | - |
| 1778147661 | 3.33° C | 78% | 1012.6 hPa | 0 mm | - | 0 W/m² | - |
| 1778147358 | 3.33° C | 77% | 1012.7 hPa | 0 mm | - | 0 W/m² | - |
| 1778147054 | 3.89° C | 77% | 1012.7 hPa | 0 mm | - | 0 W/m² | - |
| 1778146751 | 3.89° C | 79% | 1012.5 hPa | 0 mm | - | 0 W/m² | - |
| 1778146450 | 3.89° C | 79% | 1012.5 hPa | 0 mm | - | 0 W/m² | - |
| 1778146148 | 4.44° C | 78% | 1012.6 hPa | 0 mm | - | 0 W/m² | - |
| 1778145843 | 4.44° C | 77% | 1012.8 hPa | 0 mm | - | 0 W/m² | - |
| 1778145540 | 4.44° C | 74% | 1012.9 hPa | 0 mm | - | 0 W/m² | - |
| 1778145236 | 5° C | 74% | 1012.8 hPa | 0 mm | - | 0 W/m² | - |
| 1778144932 | 5° C | 72% | 1012.7 hPa | 0 mm | - | 0 W/m² | - |
| 1778144629 | 5° C | 70% | 1013 hPa | 0 mm | - | 0 W/m² | - |
| 1778144326 | 5.56° C | 67% | 1012.8 hPa | 0 mm | - | 0 W/m² | - |
| 1778144022 | 5.56° C | 66% | 1013.1 hPa | 0 mm | - | 0 W/m² | - |
| 1778143720 | 5.56° C | 65% | 1012.9 hPa | 0 mm | - | 0 W/m² | - |
| 1778143416 | 6.11° C | 65% | 1012.9 hPa | 0 mm | - | 0 W/m² | - |
| 1778143114 | 6.11° C | 65% | 1013 hPa | 0 mm | - | 0 W/m² | - |
| 1778142810 | 6.11° C | 64% | 1013 hPa | 0 mm | - | 0 W/m² | - |
| 1778142506 | 6.11° C | 64% | 1013.1 hPa | 0 mm | - | 0 W/m² | - |
| 1778142202 | 6.11° C | 64% | 1013 hPa | 0 mm | - | 0 W/m² | - |
* Rain latest hour (hover to see other rain measurements)
** Current wind speed in m/s (hover to see current wind gust speed)